| time (UTC) | temp F | wind direction | speed knots | gust knots | rain 1hr in | rain 24hr in | rain mn in | humidity % | barometer mb |
| 20260508043224 | 61 | 182 | 0.9 | 2.6 | 0.00 | 0.00 | 0.00 | 92 | 1016.0 |
| 20260508042215 | 61 | 223 | 0.9 | 3.5 | 0.00 | 0.00 | 0.00 | 91 | 1015.9 |
| 20260508041208 | 60 | 151 | 0.9 | 3.5 | 0.00 | 0.00 | 0.00 | 91 | 1015.6 |
| 20260508040204 | 60 | 250 | 1.7 | 3.5 | 0.00 | 0.00 | 0.00 | 91 | 1015.5 |
| 20260508035201 | 60 | 242 | 2.6 | 5.2 | 0.00 | 0.00 | 0.00 | 91 | 1015.3 |
| 20260508032950 | 60 | 307 | 2.6 | 6.1 | 0.00 | 0.00 | 0.00 | 90 | 1015.0 |
| 20260508030831 | 61 | 319 | 2.6 | 6.1 | 0.00 | 0.00 | 0.00 | 89 | 1014.8 |
| 20260508025837 | 61 | 282 | 3.5 | 6.1 | 0.00 | 0.00 | 0.00 | 88 | 1014.8 |
| 20260508024816 | 62 | 253 | 3.5 | 7.8 | 0.00 | 0.00 | 0.00 | 87 | 1014.7 |
| 20260508023800 | 62 | 264 | 4.3 | 7.8 | 0.00 | 0.00 | 0.00 | 86 | 1014.5 |
| 20260508022727 | 63 | 290 | 4.3 | 7.0 | 0.00 | 0.00 | 0.00 | 85 | 1014.5 |
| 20260508021718 | 64 | 72 | 4.3 | 7.0 | 0.00 | 0.00 | 0.00 | 84 | 1014.4 |
| 20260508020740 | 64 | 246 | 5.2 | 7.8 | 0.00 | 0.00 | 0.00 | 84 | 1014.4 |
| 20260508015705 | 64 | 197 | 5.2 | 8.7 | 0.00 | 0.00 | 0.00 | 83 | 1014.3 |
| 20260508013600 | 65 | 294 | 5.2 | 7.8 | 0.00 | 0.00 | 0.00 | 82 | 1014.3 |
| 20260508012549 | 65 | 225 | 5.2 | 7.8 | 0.00 | 0.00 | 0.00 | 82 | 1014.2 |
| 20260508005329 | 65 | 283 | 5.2 | 7.8 | 0.00 | 0.00 | 0.00 | 80 | 1014.3 |
| 20260508004311 | 66 | 257 | 5.2 | 7.8 | 0.00 | 0.00 | 0.00 | 79 | 1014.3 |
| 20260508003304 | 66 | 253 | 5.2 | 8.7 | 0.00 | 0.00 | 0.00 | 80 | 1014.4 |
| 20260508002307 | 66 | 256 | 6.1 | 8.7 | 0.00 | 0.00 | 0.00 | 80 | 1014.3 |
| 20260508001303 | 66 | 231 | 5.2 | 7.8 | 0.00 | 0.00 | 0.00 | 81 | 1014.4 |
| 20260508000257 | 66 | 163 | 5.2 | 7.8 | 0.00 | 0.00 | 0.00 | 82 | 1014.3 |
| 20260507234145 | 66 | 306 | 5.2 | 8.7 | 0.00 | 0.00 | 0.00 | 80 | 1014.5 |
| 20260507233117 | 66 | 217 | 5.2 | 9.6 | 0.00 | 0.00 | 0.00 | 81 | 1014.5 |
| 20260507232130 | 65 | 166 | 6.1 | 9.6 | 0.00 | 0.00 | 0.00 | 82 | 1014.7 |
| 20260507231104 | 65 | 304 | 7.0 | 11.3 | 0.00 | 0.00 | 0.00 | 83 | 1014.6 |
| 20260507230101 | 66 | 281 | 6.1 | 11.3 | 0.00 | 0.00 | 0.00 | 81 | 1014.6 |
| 20260507225030 | 66 | 293 | 7.0 | 9.6 | 0.00 | 0.00 | 0.00 | 80 | 1014.6 |
| 20260507224005 | 67 | 233 | 6.1 | 9.6 | 0.00 | 0.00 | 0.00 | 80 | 1014.6 |
| 20260507223004 | 67 | 277 | 6.1 | 9.6 | 0.00 | 0.00 | 0.00 | 78 | 1014.7 |
| 20260507221950 | 68 | 222 | 6.1 | 9.6 | 0.00 | 0.00 | 0.00 | 78 | 1014.9 |
| 20260507221007 | 67 | 232 | 7.0 | 9.6 | 0.00 | 0.00 | 0.00 | 78 | 1014.9 |
| 20260507220011 | 67 | 220 | 7.0 | 9.6 | 0.00 | 0.00 | 0.00 | 77 | 1015.1 |
| 20260507214949 | 67 | 231 | 7.0 | 11.3 | 0.00 | 0.00 | 0.00 | 77 | 1015.4 |
| 20260507213957 | 67 | 184 | 7.0 | 11.3 | 0.00 | 0.00 | 0.00 | 78 | 1015.5 |
| 20260507212943 | 67 | 95 | 7.0 | 11.3 | 0.00 | 0.00 | 0.00 | 77 | 1015.4 |
| 20260507210842 | 67 | 253 | 7.0 | 10.4 | 0.00 | 0.00 | 0.00 | 77 | 1015.8 |
| 20260507205854 | 67 | 9 | 7.0 | 10.4 | 0.00 | 0.00 | 0.00 | 79 | 1015.9 |
| 20260507203748 | 67 | 291 | 7.0 | 9.6 | 0.00 | 0.00 | 0.00 | 77 | 1016.1 |
| 20260507202755 | 67 | 222 | 7.0 | 9.6 | 0.00 | 0.00 | 0.00 | 77 | 1016.2 |
| 20260507200634 | 67 | 315 | 7.0 | 9.6 | 0.00 | 0.00 | 0.00 | 78 | 1016.2 |
| 20260507195646 | 67 | 217 | 6.1 | 8.7 | 0.00 | 0.00 | 0.00 | 77 | 1016.4 |
| 20260507194612 | 67 | 288 | 6.1 | 8.7 | 0.00 | 0.00 | 0.00 | 77 | 1016.5 |
| 20260507193556 | 67 | 105 | 6.1 | 8.7 | 0.00 | 0.00 | 0.00 | 77 | 1016.6 |
| 20260507191417 | 67 | 70 | 5.2 | 8.7 | 0.00 | 0.00 | 0.00 | 77 | 1016.7 |
| 20260507190358 | 67 | 245 | 5.2 | 7.8 | 0.00 | 0.00 | 0.00 | 77 | 1016.8 |
| 20260507185326 | 68 | 281 | 4.3 | 7.8 | 0.00 | 0.00 | 0.00 | 75 | 1016.8 |
| 20260507184339 | 68 | 199 | 3.5 | 7.0 | 0.00 | 0.00 | 0.00 | 75 | 1016.9 |
| 20260507183334 | 68 | 31 | 3.5 | 7.0 | 0.00 | 0.00 | 0.00 | 75 | 1016.9 |
| 20260507182348 | 68 | 219 | 3.5 | 7.0 | 0.00 | 0.00 | 0.00 | 75 | 1016.8 |
| 20260507181342 | 68 | 120 | 3.5 | 7.0 | 0.00 | 0.00 | 0.00 | 76 | 1016.9 |
| 20260507180323 | 68 | 203 | 3.5 | 5.2 | 0.00 | 0.00 | 0.00 | 77 | 1016.9 |
| 20260507175324 | 67 | 241 | 3.5 | 7.8 | 0.00 | 0.00 | 0.00 | 77 | 1017.0 |
| 20260507174304 | 67 | 41 | 3.5 | 7.8 | 0.00 | 0.00 | 0.00 | 77 | 1016.9 |
| 20260507172221 | 67 | 233 | 3.5 | 6.1 | 0.00 | 0.00 | 0.00 | 77 | 1017.1 |
| 20260507171218 | 67 | 264 | 3.5 | 6.1 | 0.00 | 0.00 | 0.00 | 77 | 1017.1 |
| 20260507170153 | 67 | 246 | 2.6 | 6.1 | 0.00 | 0.00 | 0.00 | 77 | 1017.0 |
| 20260507165135 | 67 | 8 | 1.7 | 3.5 | 0.00 | 0.00 | 0.00 | 78 | 1017.0 |
| 20260507164101 | 66 | 255 | 1.7 | 3.5 | 0.00 | 0.00 | 0.00 | 78 | 1017.1 |
| 20260507161924 | 66 | 20 | 1.7 | 4.3 | 0.00 | 0.00 | 0.00 | 80 | 1017.1 |
| 20260507160946 | 65 | 262 | 1.7 | 4.3 | 0.00 | 0.00 | 0.00 | 81 | 1017.0 |
| 20260507155943 | 65 | 249 | 1.7 | 4.3 | 0.00 | 0.00 | 0.00 | 81 | 1017.1 |
| 20260507155002 | 64 | 66 | 2.6 | 3.5 | 0.00 | 0.00 | 0.00 | 83 | 1017.1 |
| 20260507153949 | 65 | 187 | 1.7 | 3.5 | 0.00 | 0.00 | 0.00 | 84 | 1017.1 |
| 20260507152950 | 64 | 245 | 0.9 | 3.5 | 0.00 | 0.00 | 0.00 | 85 | 1017.1 |
| 20260507151950 | 63 | 9 | 2.6 | 5.2 | 0.00 | 0.00 | 0.00 | 86 | 1017.2 |
| 20260507150923 | 62 | 288 | 2.6 | 5.2 | 0.00 | 0.00 | 0.00 | 87 | 1017.2 |
| 20260507145926 | 62 | 295 | 1.7 | 4.3 | 0.00 | 0.00 | 0.00 | 88 | 1017.1 |
| 20260507143811 | 61 | 173 | 0.9 | 4.3 | 0.00 | 0.00 | 0.00 | 90 | 1017.1 |
| 20260507141608 | 60 | 251 | 0.9 | 3.5 | 0.00 | 0.00 | 0.00 | 91 | 1016.9 |
| 20260507140600 | 60 | 274 | 1.7 | 3.5 | 0.00 | 0.00 | 0.00 | 91 | 1016.7 |
| 20260507135557 | 59 | 271 | 0.9 | 2.6 | 0.00 | 0.00 | 0.00 | 92 | 1016.7 |
| 20260507133411 | 59 | 290 | 0.9 | 2.6 | 0.00 | 0.00 | 0.00 | 91 | 1016.6 |
| 20260507132400 | 59 | 266 | 0.9 | 2.6 | 0.00 | 0.00 | 0.00 | 91 | 1016.4 |
| 20260507130310 | 59 | 272 | 0.9 | 2.6 | 0.00 | 0.00 | 0.00 | 91 | 1016.3 |
| 20260507124122 | 58 | 269 | 1.7 | 3.5 | 0.00 | 0.00 | 0.00 | 91 | 1016.2 |
| 20260507123126 | 58 | 226 | 0.9 | 2.6 | 0.00 | 0.00 | 0.00 | 91 | 1016.2 |
| 20260507122147 | 58 | 247 | 0.0 | 0.0 | 0.00 | 0.00 | 0.00 | 91 | 1016.2 |
| 20260507121126 | 58 | 287 | 0.0 | 2.6 | 0.00 | 0.00 | 0.00 | 91 | 1016.3 |
| 20260507120121 | 58 | 264 | 0.0 | 0.0 | 0.00 | 0.00 | 0.00 | 91 | 1016.2 |
| 20260507115132 | 58 | 264 | 0.0 | 0.0 | 0.00 | 0.00 | 0.00 | 91 | 1016.0 |
| 20260507114118 | 58 | 248 | 0.0 | 2.6 | 0.00 | 0.00 | 0.00 | 91 | 1016.1 |
| 20260507113112 | 58 | 255 | 0.0 | 0.9 | 0.00 | 0.00 | 0.00 | 90 | 1016.0 |
| 20260507112127 | 58 | 229 | 0.9 | 2.6 | 0.00 | 0.00 | 0.00 | 91 | 1016.1 |
| 20260507111134 | 58 | 184 | 0.0 | 1.7 | 0.00 | 0.00 | 0.00 | 91 | 1016.3 |
| 20260507110144 | 58 | 102 | 0.0 | 1.7 | 0.00 | 0.00 | 0.00 | 91 | 1016.2 |
| 20260507105118 | 58 | 155 | 0.0 | 1.7 | 0.00 | 0.00 | 0.00 | 90 | 1016.4 |
| 20260507104130 | 59 | 187 | 0.0 | 2.6 | 0.00 | 0.00 | 0.00 | 91 | 1016.5 |
| 20260507103058 | 59 | 199 | 0.0 | 2.6 | 0.00 | 0.00 | 0.00 | 91 | 1016.6 |
| 20260507100930 | 59 | 141 | 0.0 | 0.9 | 0.00 | 0.00 | 0.00 | 91 | 1016.7 |
| 20260507095857 | 59 | 247 | 0.0 | 0.0 | 0.00 | 0.00 | 0.00 | 90 | 1016.6 |
| 20260507094907 | 59 | 247 | 0.0 | 0.0 | 0.00 | 0.00 | 0.00 | 90 | 1016.7 |
| 20260507093932 | 59 | 246 | 0.0 | 0.0 | 0.00 | 0.00 | 0.00 | 90 | 1016.7 |
| 20260507092943 | 59 | 246 | 0.9 | 2.6 | 0.00 | 0.00 | 0.00 | 90 | 1016.9 |
| 20260507091947 | 59 | 247 | 1.7 | 3.5 | 0.00 | 0.00 | 0.00 | 90 | 1017.0 |
| 20260507090923 | 59 | 94 | 1.7 | 4.3 | 0.00 | 0.00 | 0.00 | 90 | 1017.1 |
| 20260507085942 | 59 | 211 | 2.6 | 4.3 | 0.00 | 0.00 | 0.00 | 90 | 1017.1 |
| 20260507084924 | 59 | 259 | 2.6 | 5.2 | 0.00 | 0.00 | 0.00 | 91 | 1017.1 |
| 20260507083921 | 59 | 260 | 0.9 | 5.2 | 0.00 | 0.00 | 0.00 | 91 | 1017.4 |
| 20260507082917 | 59 | 268 | 0.9 | 2.6 | 0.00 | 0.00 | 0.00 | 91 | 1017.5 |
| 20260507081859 | 59 | 247 | 0.0 | 2.6 | 0.00 | 0.00 | 0.00 | 91 | 1017.5 |
| 20260507080847 | 59 | 203 | 0.9 | 3.5 | 0.00 | 0.00 | 0.00 | 91 | 1017.5 |
| 20260507075859 | 59 | 237 | 0.9 | 3.5 | 0.00 | 0.00 | 0.00 | 91 | 1017.5 |
| 20260507074900 | 59 | 300 | 0.9 | 3.5 | 0.00 | 0.00 | 0.00 | 91 | 1017.6 |
| 20260507073859 | 59 | 269 | 0.0 | 0.0 | 0.00 | 0.00 | 0.00 | 91 | 1017.6 |
| 20260507072847 | 59 | 295 | 0.9 | 2.6 | 0.00 | 0.00 | 0.00 | 91 | 1017.6 |
| 20260507071824 | 59 | 241 | 0.9 | 2.6 | 0.00 | 0.00 | 0.00 | 91 | 1017.6 |
| 20260507070843 | 59 | 238 | 0.9 | 3.5 | 0.00 | 0.00 | 0.00 | 91 | 1017.6 |
| 20260507065825 | 59 | 281 | 0.9 | 3.5 | 0.00 | 0.00 | 0.00 | 91 | 1017.7 |
| 20260507064839 | 59 | 295 | 1.7 | 3.5 | 0.00 | 0.00 | 0.00 | 91 | 1017.8 |
| 20260507062735 | 59 | 240 | 1.7 | 3.5 | 0.00 | 0.00 | 0.00 | 91 | 1017.8 |
| 20260507061757 | 59 | 248 | 2.6 | 5.2 | 0.00 | 0.00 | 0.00 | 91 | 1017.8 |
| 20260507060801 | 59 | 250 | 3.5 | 5.2 | 0.00 | 0.00 | 0.00 | 90 | 1017.8 |
| 20260507055813 | 59 | 270 | 3.5 | 6.1 | 0.00 | 0.00 | 0.00 | 90 | 1017.8 |
| 20260507054804 | 59 | 274 | 4.3 | 7.0 | 0.00 | 0.00 | 0.00 | 90 | 1017.9 |
| 20260507050406 | 60 | 250 | 2.6 | 5.2 | 0.00 | 0.00 | 0.00 | 90 | 1017.7 |
| 20260507045418 | 59 | 254 | 3.5 | 7.0 | 0.00 | 0.00 | 0.00 | 90 | 1017.8 |